sat.trackr.live / text

‹ back to catalog

TRANSPORTER-10 OBJECT AG

NORAD 59128 · 2024-043AG

PAYLOAD ACTIVE UNKNOWN

§ Identity

Operator
Country
TBD
Launch date
2024-03-04
Launch site
AFWTR
Launch vehicle
Mass (kg)
RCS (m²)

External: N2YO · Heavens-Above · Gunter

§ Orbital elements

Epoch: 2026-05-25T02:47:45.192192Z

Period
94.01 min
Inclination
97.5611°
Eccentricity
0.0008875
Mean motion
15.31808157 rev/d
Perigee alt
464.3 km
Apogee alt
476.5 km
Semi-major
6,848.6 km
B*
1.7928e-4
RAAN
283.3329°
Arg perigee
328.9768°
Mean anomaly
31.0948°
Rev number
12,358

§ Raw data

TRANSPORTER-10 OBJECT AG1 59128U 24043AG  26145.11649528  .00005430  00000+0  17928-3 0  99932 59128  97.5611 283.3329 0008875 328.9768  31.0948 15.31808157123580

JSON: /api/v1/satellites/59128 · /tle

For live sub-satellite position, see the globe view (requires WebGL).

§ Visibility from observer

Set your observer location to see the next 7 days of passes ≥ 10°. The values pass through the URL so the page stays shareable.

No JS? Fill the form by hand. The geolocation button needs JavaScript.